User: anonymous   Login
Location: Unspecified
(0.0000°N, 0.0000°E)
Time: 03:24:31
(UTC+02:00)
Language:

Meteor 2-8 Rocket - Orbit

View from above orbital plane
View from above orbital plane
View from above satellite
View from above satellite

Ground track
Ground track

The orbit data is extracted from the following two-line orbital elements,

1 13114U 82025B   15215.54687866  .00000015  00000-0  62449-6 0  9998
2 13114 082.5387 026.7396 0013220 270.4701 147.7817 13.84645250685807
Epoch (UTC): 03 August 2015 13:07:30
Eccentricity: 0.0013220
inclination: 82.5387°
perigee height: 938 km
apogee height: 957 km
right ascension of ascending node: 26.7396°
argument of perigee: 270.4701°
revolutions per day: 13.84645250
mean anomaly at epoch: 147.7817°
orbit number at epoch: 68580

The dashed part of the orbit path shows where the satellite is in the earth's shadow,  

DLR